Location: ??
(35.5653°N, 139.6194°E)
Time: 07:22:38
(UTC+00:00)

Cosmos 2322 Rocket - Pass Details

Date: 20 November 2019
Orbit: 832 x 851 km, 71.0° (Epoch: 08 December)

Event Time Altitude Azimuth Distance (km) Brightness Sun altitude
Exits shadow 19:36:17 19° 340° (NNW) 1,895 3.7 -21.4°
Maximum altitude 19:40:26 88° 70° (ENE) 852 2.1 -20.6°
Drops below altitude 10° 19:46:07 10° 159° (SSE) 2,465 5.0 -19.5°
Sets 19:48:33 0° 160° (SSE) 3,398 5.8 -19.0°
